Weather History for KDRO - April, 2014

Change the Weather History Date:

Tuesday, April 8, 2014

  Actual Average Record
Temperature  
Mean Temperature 46 °F 43 °F  
Max Temperature 70 °F 59 °F 76 °F (1989)
Min Temperature 22 °F 27 °F 12 °F (2003)
Degree Days  
Heating Degree Days 19 22  
Month to date heating degree days 196 181  
Since 1 July heating degree days 5943 6210  
Cooling Degree Days 0 0  
Month to date cooling degree days 0 0  
Year to date cooling degree days 0 0  
Moisture  
Dew Point 15 °F    
Average Humidity 38    
Maximum Humidity 63    
Minimum Humidity 12    
Precipitation  
Precipitation 0.00 in 0.03 in 0.36 in (1990)
Month to date precipitation 0.01 0.29  
Year to date precipitation 1.54 3.82  
Sea Level Pressure  
Sea Level Pressure 30.22 in    
Wind  
Wind Speed 8 mph (West)    
Max Wind Speed 25 mph    
Max Gust Speed 36 mph    
Visibility 10 miles    
Events      
T = Trace of Precipitation, MM = Missing Value Source: NWS Daily Summary

Daily Weather History Graph

Daily Weather History Graph

Search for Another Location

Airport or City:

Trip Planner

Search our weather history database for the weather conditions in past years. The results will help you decide how hot, cold, wet, or windy it might be!

Date:

Astronomy

Apr. 08, 2014 Rise Set
Actual Time 6:46 AM MDT 7:39 PM MDT
Civil Twilight 6:19 AM MDT 8:06 PM MDT
Nautical Twilight 5:48 AM MDT 8:37 PM MDT
Astronomical Twilight 5:16 AM MDT 9:10 PM MDT
Moon 1:43 PM MDT (4/8) 2:53 AM MDT (4/8)
Length of Visible Light 13h 46m
Length of Day
12h 53m
Waxing Gibbous, 63% of the Moon is Illuminated
Apr 8
Waxing Gibbous
Apr 15
Full
Apr 22
Last Quarter
Apr 29
New
May 6
First Quarter

Hourly Weather History & Observations

Time (MDT) Temp. Windchill Dew Point Humidity Pressure Visibility Wind Dir Wind Speed Gust Speed Precip Events Conditions
12:53 AM 39.0 °F 34.0 °F 16.0 °F 39% 30.22 in 10.0 mi West 6.9 mph - N/A   Clear
1:53 AM 32.0 °F 26.4 °F 15.1 °F 50% 30.24 in 10.0 mi ENE 5.8 mph - N/A   Clear
2:53 AM 30.0 °F 26.5 °F 15.1 °F 54% 30.23 in 10.0 mi Variable 3.5 mph - N/A   Clear
3:53 AM 28.9 °F 22.8 °F 15.1 °F 56% 30.23 in 10.0 mi East 5.8 mph - N/A   Clear
4:53 AM 26.1 °F 19.4 °F 14.0 °F 60% 30.27 in 10.0 mi ENE 5.8 mph - N/A   Clear
5:53 AM 27.0 °F - 15.1 °F 61% 30.28 in 10.0 mi Calm Calm - N/A   Clear
6:53 AM 26.1 °F 19.4 °F 15.1 °F 63% 30.31 in 10.0 mi East 5.8 mph - N/A   Clear
7:53 AM 32.0 °F 26.4 °F 17.1 °F 54% 30.32 in 10.0 mi North 5.8 mph - N/A   Clear
8:53 AM 39.0 °F 36.8 °F 19.0 °F 45% 30.31 in 10.0 mi NNW 3.5 mph - N/A   Clear
9:53 AM 46.9 °F - 18.0 °F 32% 30.28 in 10.0 mi Calm Calm - N/A   Clear
10:53 AM 53.1 °F - 18.0 °F 25% 30.28 in 10.0 mi Variable 4.6 mph - N/A   Clear
11:53 AM 57.0 °F - 17.1 °F 21% 30.25 in 10.0 mi Variable 4.6 mph - N/A   Clear
12:53 PM 60.1 °F - 16.0 °F 18% 30.22 in 10.0 mi North - - N/A   Clear
1:53 PM 63.0 °F - 19.0 °F 18% 30.20 in 10.0 mi West 10.4 mph 16.1 mph N/A   Clear
2:53 PM 66.0 °F - 18.0 °F 16% 30.18 in 10.0 mi SSW 10.4 mph - N/A   Clear
3:53 PM 66.9 °F - 16.0 °F 14% 30.14 in 10.0 mi SW 17.3 mph 21.9 mph N/A   Clear
4:53 PM 68.0 °F - 15.1 °F 13% 30.14 in 10.0 mi West 19.6 mph 29.9 mph N/A   Clear
5:53 PM 66.9 °F - 12.0 °F 12% 30.13 in 10.0 mi West 20.7 mph 35.7 mph N/A   Clear
6:53 PM 64.0 °F - 10.9 °F 13% 30.15 in 10.0 mi West 17.3 mph 27.6 mph N/A   Clear
7:53 PM 59.0 °F - 10.9 °F 15% 30.17 in 10.0 mi WNW 10.4 mph - N/A   Clear
8:53 PM 54.0 °F - 10.9 °F 18% 30.18 in 10.0 mi WSW 6.9 mph - N/A   Clear
9:53 PM 50.0 °F - 12.9 °F 23% 30.18 in 10.0 mi WSW 8.1 mph - N/A   Clear
10:53 PM 48.9 °F - 15.1 °F 26% 30.16 in 10.0 mi West 4.6 mph - N/A   Clear
11:53 PM 46.9 °F - 15.1 °F 28% 30.16 in 10.0 mi Calm Calm - N/A   Clear